Showing default

DUBAISAT 2, 39419

Orbit data source: Space-Track

DUBAISAT 2, 39419 is a payload satellite owned by EIAST (AE) in SSO that was launched on Thu, 21 Nov 2013 UTC via a DNEPR launch vehicle from the Orenburg, Russia (OREN). Payload-class satellites include a variety of spacecraft equipped with specific instruments for various scientific and technological missions. These include communications satellites like Starlink; space stations such as the ISS; scientific satellites like the Hubble; Earth observation satellites from companies like Planet Labs, Umbra, and HawkEye 360; GPS; miniature CubeSats for education and research; and military/defense satellites.

Loading next visibility...
Identifier
39419, 2013-066D
Orbit
SSO
Country
Flag of AEAE / UAE
Related business
Manufacturer
SatRec Initiative
Mission
Operational Civil Imaging
Bus & Motor
SI-300, Unknown motor
Mass
300 kg wet, 300 kg dry
Launch date (UTC)
2013-11-21 (12 years ago)
Launch vehicle
DNEPR
Launch site
Orenburg, Russia (OREN)
Object type
Payload
Rocket body
Debris
Shape & HBR
Hex Cyl + 3 Pan, 1.5 m
Radar Cross Section
2.520 m², Large (>1 m²)

Expand to show TLE details & history
Last TLE update: 10 hours ago

TLE from 10 hours ago
0 DUBAISAT 2
1 39419U 13066D   25300.93084414  .00006915  00000-0  45585-3 0  9996
2 39419  97.4439 292.7769 0013526 107.7313 252.5393 15.07720022651361
Epoch: 2025-10-27T22:20Z
TLE epoch observation values (Epoch: 2025-10-27T22:20:24.933Z)
Latitude
-0.00002°
Longitude
-78.8526°
Altitude
549.063 km
Speed
7.586 km/s
True Right ascension
19h 31m 06s
True Declination
0° 00' 00"
Sunlit
Object was in daylight at epoch
Visualization orbit readout
Latitude
Unknown
Longitude
Unknown
Altitude
Unknown
Speed
Unknown
Apparent Right ascension
Unknown
Apparent Declination
Unknown
Sunlit
N/A
Visualization observer readout
Local Sidereal Time
03:20:42
Azimuth
Unknown
Elevation
Unknown
Doppler factor
Unknown
Orbital elements
Apogee altitude
549.51 km
Perigee altitude
530.795 km
Semi-major axis
6,918.29 km
Eccentricity
0.00135
Inclination
97.4439°
RAAN
292.7769°
Arg. of periapsis
107.7313°
True anomaly
252.39152°
Mean anomaly
252.5393°
Eccentric anomaly
252.4654°
Mean motion
3.77177 °/min
Orbital period
95.45 mins
BSTAR
0.00045585
Loading maneuver chart data...
Computing Atmospheric mass density...
Loading historical data...
Loading historical data...
Loading historical data...
Loading historical data...
Loading historical data...
Loading historical data...
Loading historical data...

Documentation

Showing up to 5 results
|